Flag for Sweden Weather past 2 weeks in Karlstad, Sweden

Now
54 °F

Sunny.


Feels Like: 54 °F
Forecast: 44 / 63 °F
Wind: No wind

Location: Karlstad

Current Time: Sep 19, 2014 at 7:58:27 PM

Latest Report: Sep 19, 2014 at 7:20 PM


Visibility: 10 mi

Pressure: 30.04 "Hg

Humidity: 94%

Dew point: 52 °F

Location of KarlstadLocation

Historic Weather in Karlstad — Graph

°F

Karlstad temperature yesterday

Maximum temperature yesterday: 63 °F (at 1:20 PM)
Minimum temperature yesterday: 43 °F (at 5:50 AM)
Average temperature yesterday: 52 °F

Past Weeks' High & Low Weather Summary

 TemperatureHumidityPressure
High70 °F (Sep 6, 2:20 PM)100% (Sep 4, 9:50 PM)30.48 "Hg (Sep 4, 9:50 PM)
Low39 °F (Sep 15, 5:20 AM)46% (Sep 13, 2:50 PM)29.74 "Hg (Sep 9, 5:50 AM)
Average55 °F87%30.18 "Hg
* Reported Sep 4 6:20 PM — Sep 19 6:50 PM, Karlstad, Weather by CustomWeather, © 2014

Note: Actual official high and low records may vary slightly from our data, if they occured in-between our weather recording intervals... More about our weather records

Advertising

Karlstad weather history for previous 24 hours

 ConditionsComfort  
Time TempWeatherWind HumidityBarometerVisibility
6:50 PM
Sep 19
59 °FSunny.No wind77%30.04 "Hg10 mi
6:20 PM63 °FSunny.No wind64%30.04 "Hg10 mi
5:50 PM64 °FSunny.No wind60%30.04 "Hg10 mi
5:20 PM63 °FSunny.2 mph59%30.07 "Hg10 mi
4:50 PM64 °FPassing clouds.2 mph56%30.07 "HgN/A
4:20 PM64 °FPassing clouds.3 mph60%30.07 "HgN/A
3:50 PM64 °FSunny.2 mph64%30.07 "Hg10 mi
3:20 PM63 °FSunny.2 mph73%30.07 "Hg10 mi
2:50 PM61 °FPassing clouds.3 mph77%30.09 "HgN/A
2:20 PM59 °FPassing clouds.3 mph82%30.09 "HgN/A
1:50 PM57 °FPassing clouds.3 mph88%30.09 "HgN/A
1:20 PM55 °FScattered clouds.3 mph94%30.09 "HgN/A
12:50 PM54 °FFog.1 mph100%30.09 "Hg5 mi
12:20 PM54 °FFog.1 mph100%30.12 "Hg2 mi
11:50 AM52 °FFog.2 mph100%30.12 "Hg1 mi
11:20 AM52 °FFog.1 mph100%30.12 "Hg1 mi
10:50 AM50 °FFog.2 mph100%30.12 "Hg1 mi
10:20 AM50 °FFog.2 mph100%30.12 "Hg0 mi
9:50 AM50 °FFog.3 mph100%30.12 "Hg0 mi
9:20 AM50 °FFog.3 mph100%30.12 "Hg0 mi
8:50 AM48 °FFog.5 mph100%30.12 "Hg0 mi
8:20 AM48 °FFog.3 mph100%30.12 "Hg1 mi
7:50 AM46 °FLow clouds.2 mph100%30.12 "Hg3 mi
7:20 AM46 °FLow clouds.3 mph100%30.12 "Hg0 mi
6:50 AM45 °FFog.3 mph100%30.12 "Hg0 mi
6:20 AM41 °FFog.3 mph100%30.12 "Hg0 mi
5:50 AM41 °FLow clouds.3 mph100%30.12 "Hg0 mi
5:20 AM43 °FFog.3 mph100%30.12 "Hg0 mi
4:50 AM43 °FFog.3 mph100%30.12 "Hg1 mi
4:20 AM43 °FLight fog.5 mph100%30.12 "Hg0 mi
3:50 AM43 °FQuite cool.5 mph100%30.12 "Hg2 mi
3:20 AM43 °FLight fog.6 mph100%30.12 "Hg1 mi
2:50 AM45 °FLight fog.6 mph100%30.12 "Hg1 mi
2:20 AM43 °FLight fog.6 mph100%30.12 "Hg2 mi
1:50 AM43 °FLight fog.5 mph93%30.15 "Hg1 mi
1:20 AM45 °FLight fog.5 mph100%30.15 "Hg2 mi
12:50 AM43 °FFog.6 mph100%30.15 "Hg1 mi
12:20 AM45 °FQuite cool.6 mph100%30.15 "HgN/A
11:50 PM
Sep 18
45 °FQuite cool.5 mph100%30.15 "HgN/A
11:20 PM45 °FQuite cool.3 mph100%30.15 "HgN/A
10:50 PM45 °FClear.2 mph93%30.15 "Hg10 mi
10:20 PM45 °FClear.3 mph100%30.15 "Hg10 mi
9:50 PM46 °FClear.5 mph100%30.15 "Hg10 mi
9:20 PM48 °FClear.5 mph94%30.15 "Hg10 mi
8:50 PM48 °FClear.3 mph100%30.15 "Hg10 mi
8:20 PM50 °FClear.2 mph94%30.15 "Hg10 mi
7:50 PM52 °FSunny.2 mph94%30.15 "Hg10 mi
7:20 PM54 °FSunny.1 mph88%30.15 "Hg10 mi
Weather by CustomWeather, © 2014

See weather overviewHow to use our weather pages